Location: Newark
(44.6768°N, 22.5302°E)
Time: 13:46:20
(UTC+00:00)

AO-92 - Pass Details

Date: 06 July 2022
Orbit: 469 x 481 km, 97.4° (Epoch: 17 August)

Event Time Altitude Azimuth Distance (km) Brightness Sun altitude
Exits shadow 20:36:35 42° 179° (S) 699 ? -17.5°
Maximum altitude 20:37:42 78° 257° (WSW) 497 ? -17.6°
Drops below altitude 10° 20:41:18 10° 345° (NNW) 1,672 ? -17.9°
Sets 20:43:23 0° 347° (NNW) 2,559 ? -18.1°
